Regional Weather Roundup
Issued by NWS Newport/Morehead, NC

Current Version | Previous Version | Text Only | Print | Product List | Glossary On
Versions: 1 2 3 4 5 6 7 8 9 10 11 12 13 14 15 16 17 18 19 20 21 22 23 24 25 26 27 28 29 30 31 32 33 34 35 36 37 38 39 40 41 42 43 44 45 46 47 48 49 50
000
ASUS42 KMHX 050625
RWRMHX
WEATHER ROUNDUP FOR EASTERN NORTH CAROLINA
NATIONAL WEATHER SERVICE NEWPORT/MOREHEAD CITY NC
200 AM EDT WED AUG 05 2015

NOTE: "FAIR" INDICATES FEW OR NO CLOUDS BELOW 12,000 FEET
WITH NO SIGNIFICANT WEATHER AND/OR OBSTRUCTIONS TO VISIBILITY

NCZ015>017-031-032-045>047-102-103-050700-
NORTH COAST

CITY           SKY/WX    TMP DP  RH WIND       PRES   REMARKS
EDENTON          N/A     78  75  90 W6        29.92F
ELIZABETH CITY PTCLDY    76  75  97 S3        29.92F
KITTY HAWK     PTCLDY    78  75  90 SW6       29.92F
MANTEO         PTCLDY    78  76  94 W8        29.92F

$$

NCZ045>047-081-094-103-104-050700-
CENTRAL COAST

CITY           SKY/WX    TMP DP  RH WIND       PRES   REMARKS
FRISCO         MOCLDY    78  76  93 W8        29.93F
SWANQUARTER      N/A     79 N/A N/A W3G10     29.88F

$$

NCZ095-097-098-100-101-050700-
SOUTHERN COAST

CITY           SKY/WX    TMP DP  RH WIND       PRES   REMARKS
BEAUFORT       PTCLDY    79  78  97 W8        29.95F
CEDAR ISLAND     N/A     79 N/A N/A SW10      29.97S
JACKSONVILLE   CLEAR     76  74  93 SW3       29.96F
PINEY ISLAND   MOCLDY   N/A N/A N/A SW8       29.94F
WILMINGTON     MOCLDY    78  77  96 SW6       29.98F


$$

NCZ011>013-027>030-043-044-078>080-089-090>093-098-050700-
COASTAL PLAIN

CITY           SKY/WX    TMP DP  RH WIND       PRES   REMARKS
AHOSKIE        PTCLDY   N/A N/A N/A CALM      29.95F
CLINTON        CLEAR     75  75  99 CALM      29.98S
ELIZABETHTOWN  CLEAR     77  76  96 CALM      29.98S
GOLDSBORO      CLEAR     75  75  99 SW1       29.95F
GREENVILLE     CLEAR     73  73 100 CALM      29.97F
HAVELOCK       CLOUDY    78  76  93 W6        29.97F
KENANSVILLE    CLEAR     74  72  96 CALM      29.98F
KINSTON        CLEAR     73  72  97 SW5       29.97F
NEW BERN       PTCLDY    77  75  93 SW7       29.96F
RICHLANDS      MOCLDY    73  68  83 SW5       29.97S VSB 3/4
ROCKY MOUNT    CLEAR     74  72  93 S5        29.97F
WASHINGTON     CLEAR     75  73  95 W6        29.94F
WHITEVILLE     PTCLDY    77  75  94 SW3       29.98F

$$

AMZ130-135-150-152-154-156-158-170-250-252-270-ANZ085-086-088-633-658-670-050700-
MARINE OBSERVATIONS

STATION/POSITION TIME  TEMP    WIND        PRES    WAVE   SWELL
                       AIR SEA DIR/SP/G            HT/PER HT/PER
                 (UTC) (F)     (DEG/KT/KT) (MB)    (FT/S) (FT/S)
CHESAPEAKE LIGHT 0600   77     220/ 16/ 16 1013.1
64 E VA BEACH    0550   80 81  200/ 17/ 21 1013.0    6/ 6   2/11
DUCK             0600   78 62  220/  7/ 10 1012.5
2 E DUCK         0511      64                N/A     3/ 6
OREGON INLET     0600   80 82  240/ 11/ 12 1013.1
13E OREGON INLT  0600      80                N/A     4/ 7
HATTERAS CG      0600   78 80  250/  9/ 11 1013.1
DIAMOND BUOY     0550   81 83  230/ 19/ 23 1013.5    6/ 6   2/11
CAPE LOOKOUT     0600   80     250/ 12/ 16 1013.9
BEAUFORT LAB     0600   79 80  260/  4/  8 1013.6
30 SE NEW RVR IN 0508   82 81  250/ 16/ 21 1015.9
27 SE WRIGHTSVLE 0600   78 82  260/ 16/ 17   N/A
5 SE WRIGHTSVLE  0508   81 81  240/ 10/ 12 1015.4
225 S CAPE HAT   0550   82 81  210/ 14/ 17 1018.5    6/ 7   5/ 7
41 SE CHARLESTON 0550   83 83  230/ 16/ 17 1015.9    3/ 7   2/ 7

$$



USA.gov is the U.S. government's official web portal to all federal, state and local government web resources and services.